Location: Home
(42.5358°N, 72.7383°W)
Time: 08:21:48
(UTC-04:00)

Kosmos-337 - Pass Details

Date: 12 July 2022
Orbit: 1467 x 1552 km, 74.0° (Epoch: 16 August)

Event Time Altitude Azimuth Distance (km) Brightness Sun altitude
Rises 23:21:07 0° 342° (NNW) 4,731 ? -22.0°
Reaches altitude 10° 23:24:25 10° 350° (N) 3,740 ? -22.2°
Maximum altitude 23:32:51 39° 57° (ENE) 2,158 ? -22.8°
Enters shadow 23:38:27 20° 113° (ESE) 2,952 ? -23.1°
